Regional Weather Roundup
Issued by NWS

Home | Current Version | Previous Version | Text Only | Print | Product List | Glossary Off
Versions: 1 2 3 4 5 6 7 8 9 10 11 12 13 14 15 16 17 18 19 20 21 22 23 24 25 26 27 28 29 30 31 32 33 34 35 36 37 38 39 40 41 42 43 44 45 46 47 48 49 50

530
ASUS44 KLIX 310101
RWRLA
LOUISIANA WEATHER ROUNDUP
NATIONAL WEATHER SERVICE NEW ORLEANS LA
800 PM CDT SAT AUG 30 2014

NOTE: "FAIR" INDICATES FEW OR NO CLOUDS BELOW 12,000 FEET WITH NO
      SIGNIFICANT WEATHER AND/OR OBSTRUCTIONS TO VISIBILITY.
      SKY/WX - SKY CONDITION AND SIGNIFICANT WEATHER.
      TMP - AIR TEMPERATURE.    DP   - DEWPOINT TEMPERATURE.
      RH  - RELATIVE HUMIDITY.  PRES - PRESSURE.
      HX  - HEAT INDEX.         WCI  - WIND CHILL INDEX.

*  THESE STATIONS ARE NOT NWS OR FAA STATIONS AND ARE NOT UNDER
   NWS QUALITY CONTROL.

LAZ040-048-061>063-065-066-069-310200-
SOUTHEAST LOUISIANA

CITY           SKY/WX    TMP DP  RH WIND       PRES   REMARKS
N.O. AUDUBON     N/A     79  76  91 MISG        N/A
N.O. INTL ARPT LGT RAIN  77  74  90 CALM      30.06R
N.O. LAKEFRONT CLOUDY    81  76  84 NW16      30.05R
N.O. DOWNTOWN* MOCLDY    90  70  51 W6        30.06R HX  95
SLIDELL        CLOUDY    76  73  91 NW3       30.05R
BATON ROUGE    CLOUDY    74  72  93 SE6       30.01F
BOOTHVILLE     CLOUDY    85  80  85 S3        30.04S HX  99
BELLE CHASSE   CLOUDY    78  74  87 CALM      30.03R
BOGALUSA*      MOCLDY    77  73  86 CALM      30.07R
GALLIANO*      NOT AVBL
NEW ROADS*     MOCLDY    74  73  96 SE3       30.00F
GONZALES*      LGT RAIN  74  74 100 SE3       30.02F
HAMMOND*       NOT AVBL
HOUMA*         CLOUDY    74  71  89 CALM      30.04F
PORT FOURCHON* CLEAR     86  79  79 S3        30.05R HX  99

$$

LAZ041-044-053-054-310200-
SOUTHWEST LOUISIANA

CITY           SKY/WX    TMP DP  RH WIND       PRES   REMARKS
LAKE CHARLES   CLOUDY    76  74  93 CALM      29.97R
LAFAYETTE      CLOUDY    74  72  93 VRB6      29.98F
PATTERSON        N/A     73  72  94 SE5       30.05S
SALT POINT       N/A     78  75  90 CALM      30.03R
NEW IBERIA     LGT RAIN  74  73  97 SE7       30.00F
CHENAULT AIRPK NOT AVBL

$$

LAZ027-028-310200-
CENTRAL LOUISIANA

CITY           SKY/WX    TMP DP  RH WIND       PRES   REMARKS
FORT POLK      CLOUDY    76  74  93 SE8       29.96S
ALEXANDRIA INT CLOUDY    77  75  93 S5        29.96S
ALEXANDRIA     CLOUDY    77  73  87 S5        29.98S

$$

LAZ001-002-310200-
NORTHWEST LOUISIANA

CITY           SKY/WX    TMP DP  RH WIND       PRES   REMARKS
SHREVEPORT     CLOUDY    80  74  81 SE5       29.91S
BARKSDALE AFB  PTCLDY    79  72  79 SE6       29.92R
DTN SHREVEPORT PTCLDY    81  72  74 SE6       29.92R

$$

LAZ014-016-310200-
NORTHEAST LOUISIANA

CITY           SKY/WX    TMP DP  RH WIND       PRES   REMARKS
MONROE         CLOUDY    75  73  93 S7        29.97R
TALLULAH       CLOUDY    76  72  87 S8        30.00R

$$




USA.gov is the U.S. government's official web portal to all federal, state and local government web resources and services.